Weather History for Edwards AFB North Base, CA

Change the Weather History Date:

Saturday, October 27, 2012

  Actual Average (KEDW) Record (KEDW)
Temperature  
Mean Temperature 54 °F -  
Max Temperature 75 °F 70 °F 86 °F (2003)
Min Temperature 34 °F 40 °F 30 °F (1997)
Degree Days  
Heating Degree Days 10    
Growing Degree Days 4 (Base 50)    
Moisture  
Dew Point 10 °F    
Average Humidity 19    
Maximum Humidity 26    
Minimum Humidity 10    
Precipitation  
Precipitation 0.00 in - - ()
Sea Level Pressure  
Sea Level Pressure 30.06 in    
Wind  
Wind Speed 1 mph (NW)    
Max Wind Speed 6 mph    
Max Gust Speed -    
Visibility 10 miles    
Events      
Averages and records for this station are not official NWS values.
T = Trace of Precipitation, MM = Missing Value Source: NWS Daily Summary

Daily Weather History Graph

Daily Weather History Graph

Search for Another Location

Airport:

Trip Planner

Search our weather history database for the weather conditions in past years. The results will help you decide how hot, cold, wet, or windy it might be!

Date:

Astronomy

Oct. 27, 2012 Rise Set
Actual Time 7:08 AM PDT 6:01 PM PDT
Civil Twilight 6:42 AM PDT 6:27 PM PDT
Nautical Twilight 6:12 AM PDT 6:57 PM PDT
Astronomical Twilight 5:43 AM PDT 7:26 PM PDT
Moon 4:47 PM PDT (10/27) 5:11 AM PDT (10/27)
Length of Visible Light 11h 45m
Length of Day
10h 53m
Waxing Gibbous, 96% of the Moon is Illuminated
Oct 27
Waxing Gibbous
Oct 29
Full
Nov 6
Last Quarter
Nov 13
New
Nov 20
First Quarter

Hourly Weather History & Observations

Time (PDT) Temp. Windchill Dew Point Humidity Pressure Visibility Wind Dir Wind Speed Gust Speed Precip Events Conditions
12:55 AM 41.0 °F 39.0 °F 3.9 °F 21% 30.11 in 10.0 mi NNW 3.5 mph - N/A   Clear
1:55 AM 43.0 °F - 5.0 °F 21% 30.09 in 10.0 mi Calm Calm - N/A   Clear
2:55 AM 37.0 °F - 3.9 °F 25% 30.09 in 10.0 mi Calm Calm - N/A   Clear
3:55 AM 37.0 °F - 5.0 °F 26% 30.09 in 10.0 mi Calm Calm - N/A   Clear
4:55 AM 37.0 °F - 3.9 °F 25% 30.10 in 10.0 mi Calm Calm - N/A   Clear
5:55 AM 36.0 °F - 3.0 °F 25% 30.11 in 10.0 mi Calm Calm - N/A   Clear
6:55 AM 34.0 °F - 1.9 °F 26% 30.12 in 10.0 mi Calm Calm - N/A   Clear
7:55 AM 39.0 °F - 3.0 °F 22% 30.12 in 10.0 mi Calm Calm - N/A   Clear
8:55 AM 45.0 °F - 6.1 °F 20% 30.13 in 10.0 mi Calm Calm - N/A   Clear
9:55 AM 50.0 °F - 10.0 °F 20% 30.13 in 10.0 mi Calm Calm - N/A   Clear
10:55 AM 63.0 °F - 12.9 °F 14% 30.10 in 10.0 mi Calm Calm - N/A   Clear
1:55 PM 73.0 °F - 14.0 °F 11% 30.01 in 10.0 mi Calm Calm - N/A   Clear
2:55 PM 75.0 °F - 15.1 °F 10% 29.99 in 10.0 mi Calm Calm - N/A   Clear
3:55 PM 75.9 °F - 15.1 °F 10% 29.97 in 10.0 mi Calm Calm - N/A   Clear
4:55 PM 75.0 °F - 15.1 °F 10% 29.97 in 10.0 mi Calm Calm - N/A   Clear
5:55 PM 71.1 °F - 15.1 °F 12% 29.98 in 10.0 mi NW 4.6 mph - N/A   Clear
6:55 PM 62.1 °F - 14.0 °F 15% 30.01 in 10.0 mi NW 4.6 mph - N/A   Clear
7:55 PM 60.1 °F - 14.0 °F 16% 30.02 in 10.0 mi Calm Calm - N/A   Clear
8:55 PM 53.1 °F - 12.0 °F 20% 30.04 in 10.0 mi Calm Calm - N/A   Clear
9:55 PM 51.1 °F - 12.0 °F 21% 30.06 in 10.0 mi WNW 5.8 mph - N/A   Clear
10:55 PM 50.0 °F - 12.9 °F 23% 30.04 in 10.0 mi NW 4.6 mph - N/A   Clear
11:55 PM 46.9 °F - 12.0 °F 24% 30.04 in 10.0 mi North 4.6 mph - N/A   Clear